This is the latest recevied weather packets stored in our database for station/object KY0TEQ-13. If no packets are shown the sender has not sent any weather packets the latest 10 day(s).
| Time | Temp. | Humidity | Pressure | Rain* | Wind** | Luminosity | Snow |
|---|---|---|---|---|---|---|---|
| 1777410244 | 14.44° C | 16% | 1303.5 hPa | 0 mm | - | 609 W/m² | - |
| 1777409939 | 14.44° C | 18% | 1303.5 hPa | 0 mm | - | 635 W/m² | - |
| 1777409634 | 15° C | 17% | 1303.5 hPa | 0 mm | - | 599 W/m² | - |
| 1777409330 | 14.44° C | 17% | 1303.8 hPa | 0 mm | - | 670 W/m² | - |
| 1777409025 | 14.44° C | 20% | 1303.7 hPa | 0 mm | - | 561 W/m² | - |
| 1777408722 | 13.89° C | 18% | 1303.8 hPa | 0 mm | - | 705 W/m² | - |
| 1777408418 | 14.44° C | 19% | 1303.8 hPa | 0 mm | - | 686 W/m² | - |
| 1777408113 | 13.89° C | 21% | 1303.8 hPa | 0 mm | - | 642 W/m² | - |
| 1777407808 | 13.89° C | 19% | 1303.9 hPa | 0 mm | - | 654 W/m² | - |
| 1777407505 | 13.89° C | 19% | 1303.9 hPa | 0 mm | - | 710 W/m² | - |
| 1777407199 | 13.89° C | 19% | 1303.9 hPa | 0 mm | - | 718 W/m² | - |
| 1777406895 | 13.89° C | 22% | 1303.8 hPa | 0 mm | - | 737 W/m² | - |
| 1777406590 | 13.89° C | 19% | 1303.9 hPa | 0 mm | - | 744 W/m² | - |
| 1777406286 | 13.89° C | 19% | 1303.9 hPa | 0 mm | - | 729 W/m² | - |
| 1777405985 | 13.89° C | 22% | 1303.8 hPa | 0 mm | - | 740 W/m² | - |
| 1777405681 | 13.33° C | 22% | 1303.9 hPa | 0 mm | - | 737 W/m² | - |
| 1777405379 | 13.33° C | 24% | 1303.8 hPa | 0 mm | - | 758 W/m² | - |
| 1777405075 | 13.89° C | 22% | 1304 hPa | 0 mm | - | 758 W/m² | - |
| 1777404769 | 12.78° C | 22% | 1303.7 hPa | 0 mm | - | 763 W/m² | - |
| 1777404466 | 12.78° C | 21% | 1304 hPa | 0 mm | - | 765 W/m² | - |
| 1777404162 | 12.78° C | 22% | 1303.7 hPa | 0 mm | - | 767 W/m² | - |
| 1777403858 | 12.78° C | 23% | 1304 hPa | 0 mm | - | 702 W/m² | - |
| 1777403553 | 12.78° C | 23% | 1303.9 hPa | 0 mm | - | 780 W/m² | - |
| 1777403253 | 12.78° C | 23% | 1304 hPa | 0 mm | - | 779 W/m² | - |
| 1777402952 | 13.33° C | 23% | 1303.9 hPa | 0 mm | - | 781 W/m² | - |
* Rain latest hour (hover to see other rain measurements)
** Current wind speed in m/s (hover to see current wind gust speed)